Overview Statistics Trail Chart Weather Telemetry Raw packets
 

This is the latest recevied weather packets stored in our database for station/object PA3FNT-13. If no packets are shown the sender has not sent any weather packets the latest 10 day(s).

<< 8 9 10 11 12 13 14 >>
Time Temp. Humidity Pressure Rain* Wind** Luminosity Snow
1788286706 32.22° C 30% 1020.3 hPa - - - -
1788285805 32.22° C 31% 1020.5 hPa - - - -
1788284905 31.67° C 32% 1020.5 hPa - - - -
1788284005 31.67° C 31% 1020.5 hPa - - - -
1788283105 31.67° C 32% 1020.5 hPa - - - -
1788282205 32.22° C 30% 1020.5 hPa - - - -
1788281305 32.22° C 32% 1020.5 hPa - - - -
1788280404 28.33° C 37% 1020.5 hPa - - - -
1788279504 28.33° C 37% 1020.4 hPa - - - -
1788278604 28.33° C 36% 1020.5 hPa - - - -
1788277704 28.89° C 35% 1020.4 hPa - - - -
1788276804 30° C 34% 1020.3 hPa - - - -
1788275903 28.33° C 36% 1020.4 hPa - - - -
1788275005 28.33° C 36% 1020.3 hPa - - - -
1788274103 28.33° C 35% 1020.4 hPa - - - -
1788273203 28.33° C 34% 1020.1 hPa - - - -
1788272303 28.33° C 35% 1020.2 hPa - - - -
1788271403 28.33° C 35% 1020.3 hPa - - - -
1788270502 28.89° C 35% 1020.2 hPa - - - -
1788269602 28.89° C 35% 1020.1 hPa - - - -
1788268702 28.33° C 35% 1020.1 hPa - - - -
1788267802 28.33° C 35% 1020.1 hPa - - - -
1788266902 28.33° C 36% 1020.2 hPa - - - -
1788266002 28.89° C 35% 1020 hPa - - - -
1788265101 30.56° C 34% 1020 hPa - - - -

* Rain since midnight (hover to see other rain measurements)
** Current wind speed in m/s (hover to see current wind gust speed)